Location: Camaret
(48.2753°N, 4.5961°W)
Time: 03:29:24
(UTC+00:00)

ARGOS - Pass Details

Date: 29 October 2020
Orbit: 819 x 835 km, 98.4° (Epoch: 01 December)

Event Time Altitude Azimuth Distance (km) Brightness Sun altitude
Exits shadow 18:17:20 14° 111° (ESE) 2,186 4.8 -12.8°
Maximum altitude 18:20:57 27° 61° (ENE) 1,566 4.1 -13.4°
Drops below altitude 10° 18:25:25 10° 6° (N) 2,459 5.5 -14.1°
Sets 18:28:06 0° 355° (N) 3,397 6.4 -14.5°
